User: anonymous   Login
Location: Riverside
(39.1734°N, 77.8561°W)
Time: 05:43:38
(UTC+00:00)
Language:

AO-7 - Orbit

View from above orbital plane
View from above orbital plane
View from above satellite
View from above satellite

Ground track
Ground track

The orbit data is extracted from the following two-line orbital elements,

1  7530U 74089B   19315.36585825 -.00000038  00000-0  43906-4 0  9992
2  7530 101.7661 281.6368 0012506  66.1034  94.4698 12.53640776 58775
Epoch (UTC): 11 November 2019 08:46:50
Eccentricity: 0.0012506
inclination: 101.7661°
perigee height: 1439 km
apogee height: 1459 km
right ascension of ascending node: 281.6368°
argument of perigee: 66.1034°
revolutions per day: 12.53640776
mean anomaly at epoch: 94.4698°
orbit number at epoch: 5877

The dashed part of the orbit path shows where the satellite is in the earth's shadow,  

DLR